| time (UTC) | temp F | wind direction | speed knots | gust knots | rain 1hr in | rain 24hr in | rain mn in | humidity % | barometer mb |
| 20260505122504 | 51 | 180 | 0.0 | 1.7 | 0.00 | 0.00 | 0.00 | 96 | 1015.8 |
| 20260505122225 | 52 | 180 | 0.9 | 1.7 | 0.00 | 0.00 | 0.00 | 96 | 1016.2 |
| 20260505122022 | 51 | 180 | 0.9 | 1.7 | 0.00 | 0.00 | 0.00 | 96 | 1015.9 |
| 20260505121716 | 52 | 180 | 0.9 | 1.7 | 0.00 | 0.00 | 0.00 | 96 | 1016.2 |
| 20260505121615 | 51 | 180 | 0.0 | 1.7 | 0.00 | 0.00 | 0.00 | 96 | 1015.8 |
| 20260505121230 | 52 | 180 | 0.9 | 1.7 | 0.00 | 0.00 | 0.00 | 96 | 1016.2 |
| 20260505121046 | 51 | 180 | 0.0 | 1.7 | 0.00 | 0.00 | 0.00 | 96 | 1015.8 |
| 20260505120712 | 52 | 180 | 0.0 | 1.7 | 0.00 | 0.00 | 0.00 | 95 | 1016.2 |
| 20260505120531 | 51 | 180 | 0.0 | 1.7 | 0.00 | 0.00 | 0.00 | 95 | 1015.8 |
| 20260505120221 | 52 | 180 | 0.0 | 1.7 | 0.00 | 0.00 | 0.00 | 95 | 1016.2 |
| 20260505120008 | 51 | 180 | 0.0 | 1.7 | 0.00 | 0.00 | 0.00 | 95 | 1015.8 |
| 20260505115716 | 52 | 180 | 0.9 | 1.7 | 0.00 | 0.00 | 0.00 | 95 | 1016.1 |
| 20260505115543 | 51 | 180 | 0.9 | 1.7 | 0.00 | 0.00 | 0.00 | 95 | 1015.7 |
| 20260505115221 | 52 | 180 | 0.9 | 1.7 | 0.00 | 0.00 | 0.00 | 95 | 1016.1 |
| 20260505115057 | 51 | 180 | 0.0 | 1.7 | 0.00 | 0.00 | 0.00 | 95 | 1015.7 |
| 20260505114714 | 52 | 180 | 0.9 | 1.7 | 0.00 | 0.00 | 0.00 | 95 | 1016.1 |
| 20260505114536 | 52 | 180 | 0.9 | 1.7 | 0.00 | 0.00 | 0.00 | 95 | 1015.7 |
| 20260505114215 | 52 | 180 | 0.9 | 1.7 | 0.00 | 0.00 | 0.00 | 95 | 1016.0 |
| 20260505114020 | 52 | 180 | 0.9 | 1.7 | 0.00 | 0.00 | 0.00 | 95 | 1015.6 |
| 20260505113720 | 52 | 180 | 0.9 | 1.7 | 0.00 | 0.00 | 0.00 | 95 | 1016.0 |
| 20260505113659 | 52 | 180 | 0.0 | 1.7 | 0.00 | 0.00 | 0.00 | 95 | 1015.6 |
| 20260505113217 | 52 | 180 | 0.9 | 2.6 | 0.00 | 0.00 | 0.00 | 94 | 1016.1 |
| 20260505113054 | 52 | 180 | 0.0 | 2.6 | 0.00 | 0.00 | 0.00 | 94 | 1015.7 |
| 20260505112744 | 52 | 180 | 1.7 | 2.6 | 0.00 | 0.00 | 0.00 | 94 | 1016.1 |
| 20260505112509 | 52 | 180 | 0.9 | 2.6 | 0.00 | 0.00 | 0.00 | 94 | 1015.7 |
| 20260505112220 | 52 | 180 | 0.9 | 1.7 | 0.00 | 0.00 | 0.00 | 94 | 1016.0 |
| 20260505112051 | 52 | 180 | 0.9 | 1.7 | 0.00 | 0.00 | 0.00 | 94 | 1015.6 |
| 20260505111720 | 52 | 180 | 0.9 | 0.9 | 0.00 | 0.00 | 0.00 | 94 | 1016.1 |
| 20260505111526 | 52 | 180 | 0.0 | 0.9 | 0.00 | 0.00 | 0.00 | 94 | 1015.7 |
| 20260505111218 | 52 | 180 | 0.0 | 1.7 | 0.00 | 0.00 | 0.00 | 94 | 1016.1 |
| 20260505111105 | 52 | 180 | 0.0 | 1.7 | 0.00 | 0.00 | 0.00 | 94 | 1015.6 |
| 20260505110710 | 52 | 180 | 0.0 | 1.7 | 0.00 | 0.00 | 0.00 | 94 | 1016.0 |
| 20260505110538 | 52 | 180 | 0.0 | 1.7 | 0.00 | 0.00 | 0.00 | 94 | 1015.6 |
| 20260505110238 | 52 | 180 | 0.9 | 1.7 | 0.00 | 0.00 | 0.00 | 94 | 1016.0 |
| 20260505102221 | 52 | 180 | 0.0 | 0.9 | 0.00 | 0.00 | 0.00 | 94 | 1015.6 |
| 20260505102025 | 51 | 180 | 0.0 | 0.9 | 0.00 | 0.00 | 0.00 | 94 | 1015.1 |
| 20260505101800 | 52 | 180 | 0.0 | 1.7 | 0.00 | 0.00 | 0.00 | 94 | 1015.5 |
| 20260505101625 | 51 | 180 | 0.0 | 1.7 | 0.00 | 0.00 | 0.00 | 94 | 1015.1 |
| 20260505101225 | 52 | 180 | 0.9 | 1.7 | 0.00 | 0.00 | 0.00 | 94 | 1015.5 |
| 20260505101010 | 51 | 180 | 0.0 | 1.7 | 0.00 | 0.00 | 0.00 | 94 | 1015.1 |
| 20260505100714 | 52 | 180 | 0.0 | 0.9 | 0.00 | 0.00 | 0.00 | 94 | 1015.6 |
| 20260505100553 | 51 | 180 | 0.0 | 0.9 | 0.00 | 0.00 | 0.00 | 94 | 1015.2 |
| 20260505100216 | 52 | 180 | 0.0 | 1.7 | 0.00 | 0.00 | 0.00 | 94 | 1015.5 |
| 20260505100055 | 51 | 180 | 0.0 | 1.7 | 0.00 | 0.00 | 0.00 | 94 | 1015.1 |
| 20260505095718 | 52 | 180 | 0.0 | 1.7 | 0.00 | 0.00 | 0.00 | 94 | 1015.6 |
| 20260505095517 | 51 | 180 | 0.0 | 2.6 | 0.00 | 0.00 | 0.00 | 94 | 1015.1 |
| 20260505095226 | 52 | 180 | 0.9 | 2.6 | 0.00 | 0.00 | 0.00 | 94 | 1015.6 |
| 20260505095100 | 51 | 180 | 0.0 | 2.6 | 0.00 | 0.00 | 0.00 | 94 | 1015.2 |
| 20260505094727 | 52 | 180 | 1.7 | 2.6 | 0.00 | 0.00 | 0.00 | 94 | 1015.6 |
| 20260505094541 | 51 | 180 | 0.9 | 2.6 | 0.00 | 0.00 | 0.00 | 94 | 1015.1 |
| 20260505094236 | 52 | 180 | 1.7 | 2.6 | 0.00 | 0.00 | 0.00 | 94 | 1015.5 |
| 20260505094022 | 51 | 180 | 0.9 | 2.6 | 0.00 | 0.00 | 0.00 | 94 | 1015.1 |
| 20260505093717 | 52 | 180 | 1.7 | 2.6 | 0.00 | 0.00 | 0.00 | 94 | 1015.4 |
| 20260505093504 | 51 | 176 | 0.9 | 1.7 | 0.00 | 0.00 | 0.00 | 94 | 1015.0 |
| 20260505093218 | 52 | 176 | 0.9 | 1.7 | 0.00 | 0.00 | 0.00 | 94 | 1015.5 |
| 20260505093059 | 51 | 176 | 0.0 | 2.6 | 0.00 | 0.00 | 0.00 | 94 | 1015.0 |
| 20260505092720 | 52 | 176 | 0.9 | 2.6 | 0.00 | 0.00 | 0.00 | 94 | 1015.4 |
| 20260505092529 | 51 | 176 | 0.0 | 2.6 | 0.00 | 0.00 | 0.00 | 94 | 1015.0 |
| 20260505092229 | 52 | 176 | 0.9 | 2.6 | 0.00 | 0.00 | 0.00 | 94 | 1015.3 |
| 20260505092008 | 51 | 176 | 0.0 | 2.6 | 0.00 | 0.00 | 0.00 | 94 | 1014.9 |
| 20260505091747 | 52 | 176 | 1.7 | 2.6 | 0.00 | 0.00 | 0.00 | 94 | 1015.3 |
| 20260505091530 | 51 | 176 | 0.9 | 1.7 | 0.00 | 0.00 | 0.00 | 94 | 1014.9 |
| 20260505091235 | 52 | 176 | 0.9 | 2.6 | 0.00 | 0.00 | 0.00 | 94 | 1015.2 |
| 20260505091053 | 51 | 176 | 0.9 | 2.6 | 0.00 | 0.00 | 0.00 | 94 | 1014.7 |
| 20260505090715 | 52 | 176 | 1.7 | 0.0 | 0.00 | 0.00 | 0.00 | 94 | 1014.9 |
| 20260505090531 | 51 | 176 | 0.9 | 2.6 | 0.00 | 0.00 | 0.00 | 94 | 1014.8 |
| 20260505090213 | 52 | 178 | 0.9 | 3.5 | 0.00 | 0.00 | 0.00 | 94 | 1015.1 |
| 20260505090012 | 51 | 178 | 0.9 | 3.5 | 0.00 | 0.00 | 0.00 | 94 | 1014.8 |
| 20260505085739 | 52 | 178 | 2.6 | 3.5 | 0.00 | 0.00 | 0.00 | 94 | 1015.2 |
| 20260505085541 | 51 | 188 | 1.7 | 4.3 | 0.00 | 0.00 | 0.00 | 94 | 1014.7 |
| 20260505085224 | 52 | 182 | 1.7 | 4.3 | 0.00 | 0.00 | 0.00 | 94 | 1015.2 |
| 20260505085022 | 51 | 186 | 1.7 | 4.3 | 0.00 | 0.00 | 0.00 | 94 | 1014.8 |
| 20260505084716 | 52 | 177 | 2.6 | 4.3 | 0.00 | 0.00 | 0.00 | 94 | 1015.2 |
| 20260505084505 | 51 | 188 | 1.7 | 3.5 | 0.00 | 0.00 | 0.00 | 94 | 1014.8 |
| 20260505084218 | 52 | 176 | 2.6 | 3.5 | 0.00 | 0.00 | 0.00 | 94 | 1015.1 |
| 20260505084047 | 51 | 182 | 2.6 | 3.5 | 0.00 | 0.00 | 0.00 | 94 | 1014.7 |
| 20260505083719 | 52 | 165 | 1.7 | 3.5 | 0.00 | 0.00 | 0.00 | 94 | 1015.2 |
| 20260505083528 | 51 | 172 | 1.7 | 3.5 | 0.00 | 0.00 | 0.00 | 94 | 1014.7 |
| 20260505083228 | 51 | 174 | 2.6 | 3.5 | 0.00 | 0.00 | 0.00 | 94 | 1015.2 |
| 20260505083012 | 51 | 177 | 1.7 | 4.3 | 0.00 | 0.00 | 0.00 | 94 | 1014.6 |
| 20260505082709 | 51 | 179 | 2.6 | 4.3 | 0.00 | 0.00 | 0.00 | 94 | 1015.1 |
| 20260505082553 | 51 | 175 | 1.7 | 4.3 | 0.00 | 0.00 | 0.00 | 94 | 1014.6 |
| 20260505082211 | 51 | 190 | 1.7 | 4.3 | 0.00 | 0.00 | 0.00 | 94 | 1015.1 |
| 20260505082035 | 51 | 186 | 2.6 | 4.3 | 0.00 | 0.00 | 0.00 | 94 | 1014.6 |
| 20260505081712 | 51 | 184 | 1.7 | 3.5 | 0.00 | 0.00 | 0.00 | 94 | 1014.9 |
| 20260505081517 | 51 | 173 | 1.7 | 3.5 | 0.00 | 0.00 | 0.00 | 94 | 1014.5 |
| 20260505081221 | 51 | 178 | 1.7 | 3.5 | 0.00 | 0.00 | 0.00 | 94 | 1014.9 |
| 20260505081100 | 51 | 175 | 1.7 | 4.3 | 0.00 | 0.00 | 0.00 | 94 | 1014.5 |
| 20260505080722 | 51 | 160 | 2.6 | 4.3 | 0.00 | 0.00 | 0.00 | 94 | 1015.0 |
| 20260505080547 | 51 | 176 | 1.7 | 4.3 | 0.00 | 0.00 | 0.00 | 94 | 1014.5 |
| 20260505080230 | 51 | 173 | 1.7 | 4.3 | 0.00 | 0.00 | 0.00 | 94 | 1015.0 |
| 20260505080002 | 51 | 182 | 1.7 | 4.3 | 0.00 | 0.00 | 0.00 | 94 | 1014.5 |
| 20260505075711 | 51 | 178 | 1.7 | 4.3 | 0.00 | 0.00 | 0.00 | 93 | 1014.9 |
| 20260505075545 | 50 | 177 | 1.7 | 4.3 | 0.00 | 0.00 | 0.00 | 93 | 1014.4 |
| 20260505075219 | 51 | 164 | 0.9 | 3.5 | 0.00 | 0.00 | 0.00 | 93 | 1014.9 |
| 20260505075010 | 50 | 164 | 1.7 | 3.5 | 0.00 | 0.00 | 0.00 | 92 | 1014.5 |
| 20260505074720 | 51 | 211 | 0.9 | 1.7 | 0.00 | 0.00 | 0.00 | 92 | 1014.8 |
| 20260505074549 | 50 | 211 | 0.0 | 1.7 | 0.00 | 0.00 | 0.00 | 92 | 1014.4 |
| 20260505074222 | 51 | 211 | 0.9 | 1.7 | 0.00 | 0.00 | 0.00 | 92 | 1014.7 |
| 20260505074032 | 50 | 211 | 0.9 | 1.7 | 0.00 | 0.00 | 0.00 | 92 | 1014.2 |
| 20260505073729 | 51 | 229 | 0.0 | 1.7 | 0.00 | 0.00 | 0.00 | 92 | 1014.6 |
| 20260505073511 | 51 | 229 | 0.0 | 1.7 | 0.00 | 0.00 | 0.00 | 92 | 1014.1 |
| 20260505073210 | 51 | 229 | 0.9 | 1.7 | 0.00 | 0.00 | 0.00 | 91 | 1014.5 |
| 20260505073058 | 51 | 229 | 0.0 | 1.7 | 0.00 | 0.00 | 0.00 | 91 | 1014.0 |
| 20260505072711 | 51 | 229 | 0.9 | 1.7 | 0.00 | 0.00 | 0.00 | 91 | 1014.4 |
| 20260505072535 | 51 | 229 | 0.0 | 2.6 | 0.00 | 0.00 | 0.00 | 91 | 1013.9 |
| 20260505072213 | 52 | 245 | 0.0 | 2.6 | 0.00 | 0.00 | 0.00 | 91 | 1014.3 |
| 20260505072017 | 51 | 245 | 0.0 | 2.6 | 0.00 | 0.00 | 0.00 | 91 | 1013.8 |
| 20260505071721 | 52 | 245 | 0.9 | 2.6 | 0.00 | 0.00 | 0.00 | 90 | 1014.3 |
| 20260505071601 | 51 | 235 | 0.0 | 2.6 | 0.00 | 0.00 | 0.00 | 90 | 1013.7 |
| 20260505071224 | 52 | 231 | 0.9 | 2.6 | 0.00 | 0.00 | 0.00 | 90 | 1014.2 |
| 20260505071039 | 51 | 232 | 0.0 | 0.9 | 0.00 | 0.00 | 0.00 | 89 | 1013.7 |
| 20260505070722 | 52 | 232 | 0.0 | 0.9 | 0.00 | 0.00 | 0.00 | 89 | 1014.2 |
| 20260505070520 | 52 | 286 | 0.0 | 0.9 | 0.00 | 0.00 | 0.00 | 89 | 1013.6 |
| 20260505070230 | 52 | 286 | 0.9 | 1.7 | 0.00 | 0.00 | 0.00 | 89 | 1014.2 |
| 20260505070002 | 52 | 286 | 0.0 | 1.7 | 0.00 | 0.00 | 0.00 | 89 | 1013.6 |
| 20260505065712 | 53 | 286 | 0.9 | 1.7 | 0.00 | 0.00 | 0.00 | 88 | 1014.1 |
| 20260505065545 | 52 | 286 | 0.0 | 1.7 | 0.00 | 0.00 | 0.00 | 89 | 1013.5 |
| 20260505065213 | 53 | 286 | 0.9 | 1.7 | 0.00 | 0.00 | 0.00 | 88 | 1014.0 |
| 20260505065026 | 53 | 286 | 0.0 | 0.9 | 0.00 | 0.00 | 0.00 | 88 | 1013.5 |
| 20260505064722 | 53 | 286 | 0.0 | 0.9 | 0.00 | 0.00 | 0.00 | 88 | 1014.0 |
| 20260505064513 | 53 | 286 | 0.0 | 1.7 | 0.00 | 0.00 | 0.00 | 88 | 1013.4 |
| 20260505064223 | 54 | 286 | 0.0 | 5.2 | 0.00 | 0.00 | 0.00 | 88 | 1014.0 |
| 20260505064051 | 53 | 286 | 0.0 | 5.2 | 0.00 | 0.00 | 0.00 | 88 | 1013.3 |
| 20260505063725 | 54 | 286 | 0.0 | 5.2 | 0.00 | 0.00 | 0.00 | 88 | 1013.8 |
| 20260505063533 | 53 | 286 | 0.9 | 5.2 | 0.00 | 0.00 | 0.00 | 88 | 1013.3 |
| 20260505063233 | 54 | 268 | 1.7 | 5.2 | 0.00 | 0.00 | 0.00 | 87 | 1013.7 |
| 20260505063014 | 54 | 226 | 0.9 | 3.5 | 0.00 | 0.00 | 0.00 | 87 | 1013.1 |
| 20260505062714 | 54 | 244 | 0.9 | 2.6 | 0.00 | 0.00 | 0.00 | 86 | 1013.7 |
| 20260505062557 | 54 | 185 | 0.0 | 1.7 | 0.00 | 0.00 | 0.00 | 86 | 1013.1 |
| 20260505062216 | 55 | 185 | 0.9 | 2.6 | 0.00 | 0.00 | 0.00 | 86 | 1013.6 |
| 20260505062038 | 54 | 185 | 0.0 | 3.5 | 0.00 | 0.00 | 0.00 | 86 | 1013.0 |
| 20260505061745 | 55 | 185 | 0.9 | 3.5 | 0.00 | 0.00 | 0.00 | 86 | 1013.6 |
| 20260505061602 | 55 | 185 | 0.9 | 3.5 | 0.00 | 0.00 | 0.00 | 86 | 1013.0 |
| 20260505061225 | 55 | 178 | 0.9 | 2.6 | 0.00 | 0.00 | 0.00 | 86 | 1013.5 |
| 20260505061024 | 55 | 217 | 0.9 | 2.6 | 0.00 | 0.00 | 0.00 | 86 | 1013.0 |
| 20260505060734 | 56 | 191 | 1.7 | 3.5 | 0.00 | 0.00 | 0.00 | 85 | 1013.5 |
| 20260505060506 | 55 | 196 | 1.7 | 3.5 | 0.00 | 0.00 | 0.00 | 85 | 1012.9 |
| 20260505060215 | 56 | 207 | 1.7 | 3.5 | 0.00 | 0.00 | 0.00 | 85 | 1013.3 |
| 20260505060048 | 55 | 178 | 2.6 | 3.5 | 0.00 | 0.00 | 0.00 | 85 | 1012.8 |
| 20260505055716 | 56 | 192 | 1.7 | 3.5 | 0.00 | 0.00 | 0.00 | 85 | 1013.3 |
| 20260505055530 | 56 | 178 | 0.9 | 3.5 | 0.00 | 0.00 | 0.00 | 85 | 1012.8 |
| 20260505055224 | 56 | 190 | 0.9 | 3.5 | 0.00 | 0.00 | 0.00 | 84 | 1013.3 |
| 20260505055013 | 56 | 172 | 0.9 | 2.6 | 0.00 | 0.00 | 0.00 | 84 | 1012.8 |
| 20260505054725 | 56 | 159 | 1.7 | 2.6 | 0.00 | 0.00 | 0.00 | 84 | 1013.3 |
| 20260505054538 | 56 | 163 | 0.9 | 3.5 | 0.00 | 0.00 | 0.00 | 84 | 1012.7 |
| 20260505054233 | 57 | 145 | 0.9 | 2.6 | 0.00 | 0.00 | 0.00 | 84 | 1013.4 |
| 20260505054012 | 56 | 145 | 0.9 | 2.6 | 0.00 | 0.00 | 0.00 | 84 | 1012.7 |
| 20260505053711 | 57 | 159 | 0.9 | 2.6 | 0.00 | 0.00 | 0.00 | 83 | 1013.3 |
| 20260505053555 | 57 | 159 | 0.9 | 2.6 | 0.00 | 0.00 | 0.00 | 83 | 1012.8 |
| 20260505053213 | 57 | 150 | 0.9 | 2.6 | 0.00 | 0.00 | 0.00 | 83 | 1013.3 |
| 20260505053041 | 57 | 150 | 0.9 | 2.6 | 0.00 | 0.00 | 0.00 | 83 | 1012.7 |
| 20260505052714 | 58 | 190 | 0.9 | 2.6 | 0.00 | 0.00 | 0.00 | 82 | 1013.3 |
| 20260505052517 | 57 | 215 | 0.9 | 2.6 | 0.00 | 0.00 | 0.00 | 82 | 1012.8 |
| 20260505052222 | 58 | 343 | 0.0 | 1.7 | 0.00 | 0.00 | 0.00 | 82 | 1013.3 |
| 20260505052100 | 58 | 342 | 0.0 | 1.7 | 0.00 | 0.00 | 0.00 | 82 | 1012.7 |
| 20260505051724 | 58 | 342 | 0.9 | 1.7 | 0.00 | 0.00 | 0.00 | 81 | 1013.3 |
| 20260505051543 | 58 | 342 | 0.9 | 1.7 | 0.00 | 0.00 | 0.00 | 81 | 1012.7 |
| 20260505051232 | 59 | 327 | 0.9 | 1.7 | 0.00 | 0.00 | 0.00 | 80 | 1013.2 |
| 20260505051002 | 58 | 327 | 0.0 | 1.7 | 0.00 | 0.00 | 0.00 | 80 | 1012.6 |
| 20260505050713 | 59 | 327 | 0.9 | 1.7 | 0.00 | 0.00 | 0.00 | 80 | 1013.1 |
| 20260505050545 | 59 | 327 | 0.0 | 1.7 | 0.00 | 0.00 | 0.00 | 79 | 1012.5 |
| 20260505050214 | 59 | 322 | 0.9 | 1.7 | 0.00 | 0.00 | 0.00 | 79 | 1013.0 |
| 20260505041713 | 63 | 225 | 0.9 | 3.5 | 0.00 | 0.00 | 0.00 | 72 | 1012.8 |
| 20260505041544 | 62 | 225 | 0.9 | 3.5 | 0.00 | 0.00 | 0.00 | 72 | 1012.2 |
| 20260505041243 | 63 | 243 | 1.7 | 5.2 | 0.00 | 0.00 | 0.00 | 71 | 1012.7 |
| 20260505041006 | 63 | 247 | 1.7 | 5.2 | 0.00 | 0.00 | 0.00 | 71 | 1012.0 |
| 20260505040739 | 63 | 234 | 2.6 | 5.2 | 0.00 | 0.00 | 0.00 | 71 | 1012.6 |
| 20260505040528 | 63 | 335 | 1.7 | 4.3 | 0.00 | 0.00 | 0.00 | 71 | 1012.0 |
| 20260505040248 | 64 | 320 | 2.6 | 5.2 | 0.00 | 0.00 | 0.00 | 71 | 1012.5 |
| 20260505040052 | 63 | 292 | 1.7 | 7.0 | 0.00 | 0.00 | 0.00 | 71 | 1011.9 |
| 20260505035728 | 64 | 316 | 1.7 | 9.6 | 0.00 | 0.00 | 0.00 | 71 | 1012.4 |
| 20260505035533 | 63 | 350 | 1.7 | 9.6 | 0.00 | 0.00 | 0.00 | 71 | 1011.8 |
| 20260505035233 | 64 | 311 | 4.3 | 9.6 | 0.00 | 0.00 | 0.00 | 71 | 1012.4 |
| 20260505035011 | 63 | 341 | 2.6 | 7.0 | 0.00 | 0.00 | 0.00 | 71 | 1011.7 |
| 20260505034714 | 64 | 327 | 1.7 | 4.3 | 0.00 | 0.00 | 0.00 | 71 | 1012.4 |
| 20260505034555 | 63 | 329 | 0.9 | 2.6 | 0.00 | 0.00 | 0.00 | 72 | 1011.7 |
| 20260505034236 | 64 | 15 | 0.9 | 2.6 | 0.00 | 0.00 | 0.00 | 71 | 1012.2 |
| 20260505034015 | 64 | 15 | 0.0 | 2.6 | 0.00 | 0.00 | 0.00 | 71 | 1011.5 |
| 20260505033724 | 65 | 15 | 1.7 | 2.6 | 0.00 | 0.00 | 0.00 | 70 | 1012.2 |
| 20260505033559 | 64 | 12 | 0.0 | 1.7 | 0.00 | 0.00 | 0.00 | 69 | 1011.5 |
| 20260505033231 | 65 | 315 | 0.0 | 2.6 | 0.00 | 0.00 | 0.00 | 69 | 1012.1 |
| 20260505033019 | 65 | 315 | 0.0 | 3.5 | 0.00 | 0.00 | 0.00 | 69 | 1011.4 |
| 20260505032713 | 66 | 315 | 0.9 | 3.5 | 0.00 | 0.00 | 0.00 | 68 | 1012.1 |
| 20260505032605 | 65 | 315 | 0.9 | 3.5 | 0.00 | 0.00 | 0.00 | 68 | 1011.4 |
| 20260505032214 | 66 | 323 | 1.7 | 4.3 | 0.00 | 0.00 | 0.00 | 67 | 1012.0 |
| 20260505032043 | 66 | 338 | 1.7 | 7.0 | 0.00 | 0.00 | 0.00 | 67 | 1011.3 |
| 20260505031715 | 66 | 331 | 2.6 | 7.0 | 0.00 | 0.00 | 0.00 | 67 | 1011.9 |
| 20260505031536 | 66 | 334 | 1.7 | 7.0 | 0.00 | 0.00 | 0.00 | 66 | 1011.2 |
| 20260505031224 | 67 | 277 | 3.5 | 7.0 | 0.00 | 0.00 | 0.00 | 66 | 1012.0 |
| 20260505031011 | 67 | 315 | 0.9 | 5.2 | 0.00 | 0.00 | 0.00 | 65 | 1011.3 |
| 20260505030725 | 67 | 280 | 2.6 | 6.1 | 0.00 | 0.00 | 0.00 | 65 | 1012.0 |
| 20260505030554 | 67 | 314 | 1.7 | 6.1 | 0.00 | 0.00 | 0.00 | 65 | 1011.2 |
| 20260505030254 | 68 | 332 | 2.6 | 7.0 | 0.00 | 0.00 | 0.00 | 65 | 1011.9 |
| 20260505030011 | 67 | 284 | 1.7 | 7.0 | 0.00 | 0.00 | 0.00 | 65 | 1011.2 |
| 20260505025715 | 68 | 285 | 3.5 | 7.0 | 0.00 | 0.00 | 0.00 | 65 | 1011.8 |
| 20260505025555 | 68 | 262 | 2.6 | 7.0 | 0.00 | 0.00 | 0.00 | 65 | 1011.1 |
| 20260505025216 | 69 | 273 | 1.7 | 6.1 | 0.00 | 0.00 | 0.00 | 65 | 1011.7 |
| 20260505025036 | 68 | 320 | 0.9 | 6.1 | 0.00 | 0.00 | 0.00 | 66 | 1011.0 |
| 20260505024718 | 69 | 270 | 2.6 | 7.8 | 0.00 | 0.00 | 0.00 | 65 | 1011.6 |
| 20260505024517 | 69 | 257 | 1.7 | 7.8 | 0.00 | 0.00 | 0.00 | 65 | 1010.9 |
| 20260505024246 | 70 | 305 | 2.6 | 7.8 | 0.00 | 0.00 | 0.00 | 65 | 1011.6 |
| 20260505024040 | 69 | 312 | 2.6 | 7.8 | 0.00 | 0.00 | 0.00 | 65 | 1010.8 |
| 20260505023734 | 70 | 268 | 1.7 | 6.1 | 0.00 | 0.00 | 0.00 | 66 | 1011.5 |
| 20260505023521 | 70 | 305 | 1.7 | 4.3 | 0.00 | 0.00 | 0.00 | 65 | 1010.8 |
| 20260505023235 | 71 | 279 | 1.7 | 5.2 | 0.00 | 0.00 | 0.00 | 65 | 1011.4 |
| 20260505023050 | 70 | 15 | 1.7 | 5.2 | 0.00 | 0.00 | 0.00 | 65 | 1010.7 |
| 20260505022741 | 71 | 15 | 1.7 | 5.2 | 0.00 | 0.00 | 0.00 | 65 | 1011.5 |
| 20260505022503 | 71 | 15 | 2.6 | 5.2 | 0.00 | 0.00 | 0.00 | 64 | 1010.7 |
| 20260505022222 | 72 | 15 | 1.7 | 5.2 | 0.00 | 0.00 | 0.00 | 63 | 1011.5 |
| 20260505022049 | 71 | 14 | 1.7 | 5.2 | 0.00 | 0.00 | 0.00 | 63 | 1010.8 |
| 20260505021723 | 72 | 14 | 1.7 | 7.0 | 0.00 | 0.00 | 0.00 | 63 | 1011.6 |
| 20260505021533 | 71 | 15 | 1.7 | 7.0 | 0.00 | 0.00 | 0.00 | 63 | 1010.8 |
| 20260505021232 | 72 | 13 | 1.7 | 7.8 | 0.00 | 0.00 | 0.00 | 63 | 1011.5 |
| 20260505021012 | 71 | 15 | 2.6 | 7.8 | 0.00 | 0.00 | 0.00 | 62 | 1010.8 |
| 20260505020713 | 72 | 15 | 1.7 | 7.8 | 0.00 | 0.00 | 0.00 | 63 | 1011.5 |
| 20260505020553 | 72 | 15 | 2.6 | 7.8 | 0.00 | 0.00 | 0.00 | 64 | 1010.8 |
| 20260505020214 | 72 | 15 | 1.7 | 5.2 | 0.00 | 0.00 | 0.00 | 64 | 1011.5 |
| 20260505020038 | 72 | 15 | 1.7 | 7.0 | 0.00 | 0.00 | 0.00 | 64 | 1010.8 |
| 20260505015716 | 72 | 14 | 2.6 | 7.0 | 0.00 | 0.00 | 0.00 | 64 | 1011.6 |
| 20260505015516 | 72 | 14 | 2.6 | 7.0 | 0.00 | 0.00 | 0.00 | 64 | 1010.9 |
| 20260505015224 | 72 | 259 | 4.3 | 7.0 | 0.00 | 0.00 | 0.00 | 64 | 1011.6 |
| 20260505015059 | 72 | 232 | 3.5 | 6.1 | 0.00 | 0.00 | 0.00 | 64 | 1010.8 |
| 20260505014726 | 73 | 202 | 3.5 | 6.1 | 0.00 | 0.00 | 0.00 | 64 | 1011.5 |
| 20260505014542 | 73 | 271 | 1.7 | 7.0 | 0.00 | 0.00 | 0.00 | 63 | 1010.8 |
| 20260505014234 | 73 | 13 | 1.7 | 7.0 | 0.00 | 0.00 | 0.00 | 62 | 1011.5 |
| 20260505014023 | 73 | 14 | 0.9 | 7.0 | 0.00 | 0.00 | 0.00 | 63 | 1010.8 |
| 20260505013716 | 73 | 15 | 2.6 | 7.0 | 0.00 | 0.00 | 0.00 | 64 | 1011.7 |
| 20260505013503 | 72 | 253 | 1.7 | 6.1 | 0.00 | 0.00 | 0.00 | 63 | 1010.9 |
| 20260505013217 | 73 | 234 | 3.5 | 6.1 | 0.00 | 0.00 | 0.00 | 64 | 1011.6 |
| 20260505013047 | 72 | 219 | 3.5 | 7.0 | 0.00 | 0.00 | 0.00 | 62 | 1010.8 |
| 20260505012719 | 73 | 14 | 2.6 | 6.1 | 0.00 | 0.00 | 0.00 | 63 | 1011.6 |
| 20260505012529 | 72 | 239 | 2.6 | 6.1 | 0.00 | 0.00 | 0.00 | 63 | 1010.9 |
| 20260505012228 | 73 | 14 | 1.7 | 7.0 | 0.00 | 0.00 | 0.00 | 63 | 1011.7 |
| 20260505012010 | 72 | 14 | 1.7 | 7.0 | 0.00 | 0.00 | 0.00 | 62 | 1010.9 |
| 20260505011729 | 73 | 14 | 4.3 | 7.8 | 0.00 | 0.00 | 0.00 | 63 | 1011.7 |
| 20260505011554 | 72 | 217 | 4.3 | 7.8 | 0.00 | 0.00 | 0.00 | 66 | 1010.9 |
| 20260505011257 | 73 | 13 | 5.2 | 8.7 | 0.00 | 0.00 | 0.00 | 64 | 1011.7 |
| 20260505011014 | 72 | 252 | 2.6 | 8.7 | 0.00 | 0.00 | 0.00 | 64 | 1010.9 |
| 20260505010738 | 73 | 13 | 2.6 | 8.7 | 0.00 | 0.00 | 0.00 | 65 | 1011.7 |
| 20260505010539 | 72 | 11 | 4.3 | 8.7 | 0.00 | 0.00 | 0.00 | 64 | 1011.0 |
| 20260505010216 | 73 | 12 | 3.5 | 7.8 | 0.00 | 0.00 | 0.00 | 65 | 1011.7 |
| 20260505010026 | 72 | 15 | 3.5 | 7.8 | 0.00 | 0.00 | 0.00 | 62 | 1011.0 |
| 20260505005724 | 73 | 253 | 4.3 | 7.8 | 0.00 | 0.00 | 0.00 | 63 | 1011.8 |
| 20260505005559 | 72 | 12 | 4.3 | 7.8 | 0.00 | 0.00 | 0.00 | 64 | 1011.1 |
| 20260505005231 | 73 | 210 | 4.3 | 7.0 | 0.00 | 0.00 | 0.00 | 65 | 1011.7 |
| 20260505005019 | 72 | 232 | 2.6 | 7.0 | 0.00 | 0.00 | 0.00 | 64 | 1011.0 |
| 20260505004711 | 73 | 220 | 2.6 | 7.0 | 0.00 | 0.00 | 0.00 | 66 | 1011.8 |
| 20260505004600 | 72 | 240 | 2.6 | 7.0 | 0.00 | 0.00 | 0.00 | 65 | 1011.0 |
| 20260505004212 | 72 | 205 | 4.3 | 7.8 | 0.00 | 0.00 | 0.00 | 65 | 1011.8 |
| 20260505004042 | 72 | 13 | 2.6 | 7.8 | 0.00 | 0.00 | 0.00 | 67 | 1011.1 |
| 20260505003720 | 72 | 234 | 4.3 | 9.6 | 0.00 | 0.00 | 0.00 | 65 | 1011.8 |
| 20260505003502 | 72 | 13 | 3.5 | 9.6 | 0.00 | 0.00 | 0.00 | 66 | 1011.1 |
| 20260505003221 | 72 | 223 | 3.5 | 9.6 | 0.00 | 0.00 | 0.00 | 65 | 1011.8 |
| 20260505003048 | 72 | 13 | 3.5 | 9.6 | 0.00 | 0.00 | 0.00 | 64 | 1011.1 |
| 20260505002723 | 72 | 13 | 3.5 | 8.7 | 0.00 | 0.00 | 0.00 | 66 | 1012.0 |
| 20260505002528 | 72 | 12 | 3.5 | 10.4 | 0.00 | 0.00 | 0.00 | 67 | 1011.2 |
| 20260505002231 | 72 | 11 | 5.2 | 10.4 | 0.00 | 0.00 | 0.00 | 66 | 1012.0 |
| 20260505002009 | 71 | 174 | 5.2 | 10.4 | 0.00 | 0.00 | 0.00 | 65 | 1011.3 |
| 20260505001713 | 72 | 12 | 5.2 | 10.4 | 0.00 | 0.00 | 0.00 | 68 | 1012.0 |
| 20260505001553 | 71 | 13 | 5.2 | 7.8 | 0.00 | 0.00 | 0.00 | 65 | 1011.2 |
| 20260505001215 | 72 | 188 | 5.2 | 10.4 | 0.00 | 0.00 | 0.00 | 65 | 1012.1 |
| 20260505001034 | 72 | 201 | 4.3 | 10.4 | 0.00 | 0.00 | 0.00 | 64 | 1011.3 |
| 20260505000743 | 72 | 14 | 5.2 | 10.4 | 0.00 | 0.00 | 0.00 | 66 | 1012.1 |
| 20260505000556 | 72 | 232 | 6.1 | 10.4 | 0.00 | 0.00 | 0.00 | 65 | 1011.3 |
| 20260505000251 | 72 | 228 | 4.3 | 7.8 | 0.00 | 0.00 | 0.00 | 68 | 1012.1 |
| 20260505000032 | 71 | 226 | 3.5 | 7.8 | 0.00 | 0.00 | 0.00 | 67 | 1011.3 |
| 20260504235711 | 72 | 208 | 5.2 | 7.8 | 0.00 | 0.00 | 0.00 | 65 | 1012.1 |
| 20260504235601 | 71 | 11 | 5.2 | 7.8 | 0.00 | 0.00 | 0.00 | 65 | 1011.4 |
| 20260504235212 | 72 | 191 | 3.5 | 8.7 | 0.00 | 0.00 | 0.00 | 68 | 1012.2 |
| 20260504235045 | 71 | 200 | 2.6 | 8.7 | 0.00 | 0.00 | 0.00 | 67 | 1011.4 |
| 20260504234713 | 72 | 223 | 4.3 | 8.7 | 0.00 | 0.00 | 0.00 | 66 | 1012.3 |
| 20260504234524 | 71 | 158 | 4.3 | 8.7 | 0.00 | 0.00 | 0.00 | 67 | 1011.4 |
| 20260504234222 | 72 | 209 | 4.3 | 8.7 | 0.00 | 0.00 | 0.00 | 68 | 1012.2 |
| 20260504234004 | 71 | 144 | 4.3 | 8.7 | 0.00 | 0.00 | 0.00 | 66 | 1011.4 |
| 20260504233743 | 72 | 220 | 5.2 | 7.8 | 0.00 | 0.00 | 0.00 | 66 | 1012.1 |
| 20260504233527 | 71 | 242 | 3.5 | 7.8 | 0.00 | 0.00 | 0.00 | 66 | 1011.4 |
| 20260504233231 | 72 | 227 | 3.5 | 7.8 | 0.00 | 0.00 | 0.00 | 67 | 1012.2 |
| 20260504233052 | 71 | 227 | 4.3 | 7.8 | 0.00 | 0.00 | 0.00 | 68 | 1011.3 |
| 20260504232711 | 71 | 188 | 3.5 | 9.6 | 0.00 | 0.00 | 0.00 | 67 | 1012.2 |
| 20260504232531 | 71 | 209 | 4.3 | 9.6 | 0.00 | 0.00 | 0.00 | 66 | 1011.4 |
| 20260504232213 | 71 | 200 | 2.6 | 9.6 | 0.00 | 0.00 | 0.00 | 67 | 1012.3 |
| 20260504232012 | 71 | 219 | 5.2 | 9.6 | 0.00 | 0.00 | 0.00 | 66 | 1011.4 |
| 20260504231741 | 71 | 360 | 4.3 | 8.7 | 0.00 | 0.00 | 0.00 | 68 | 1012.2 |
| 20260504231542 | 71 | 11 | 2.6 | 7.8 | 0.00 | 0.00 | 0.00 | 66 | 1011.5 |
| 20260504231229 | 71 | 190 | 4.3 | 7.8 | 0.00 | 0.00 | 0.00 | 68 | 1012.4 |
| 20260504231015 | 70 | 202 | 4.3 | 7.0 | 0.00 | 0.00 | 0.00 | 66 | 1011.4 |
| 20260504230729 | 71 | 202 | 4.3 | 7.0 | 0.00 | 0.00 | 0.00 | 67 | 1012.3 |
| 20260504230559 | 70 | 213 | 4.3 | 7.8 | 0.00 | 0.00 | 0.00 | 69 | 1011.5 |
| 20260504230231 | 70 | 215 | 5.2 | 7.8 | 0.00 | 0.00 | 0.00 | 68 | 1012.4 |
| 20260504230034 | 70 | 237 | 2.6 | 7.8 | 0.00 | 0.00 | 0.00 | 67 | 1011.5 |
| 20260504225718 | 70 | 214 | 4.3 | 7.8 | 0.00 | 0.00 | 0.00 | 67 | 1012.4 |
| 20260504225502 | 70 | 132 | 1.7 | 7.0 | 0.00 | 0.00 | 0.00 | 65 | 1011.5 |
| 20260504225219 | 71 | 193 | 5.2 | 7.0 | 0.00 | 0.00 | 0.00 | 68 | 1012.5 |
| 20260504225044 | 70 | 221 | 4.3 | 7.0 | 0.00 | 0.00 | 0.00 | 65 | 1011.6 |
| 20260504224726 | 70 | 209 | 2.6 | 7.0 | 0.00 | 0.00 | 0.00 | 68 | 1012.6 |
| 20260504224524 | 70 | 244 | 1.7 | 7.0 | 0.00 | 0.00 | 0.00 | 68 | 1011.8 |
| 20260504224228 | 70 | 248 | 3.5 | 7.0 | 0.00 | 0.00 | 0.00 | 66 | 1012.5 |
| 20260504224059 | 70 | 207 | 2.6 | 8.7 | 0.00 | 0.00 | 0.00 | 68 | 1011.8 |
| 20260504223723 | 70 | 158 | 3.5 | 8.7 | 0.00 | 0.00 | 0.00 | 67 | 1012.7 |
| 20260504223528 | 69 | 243 | 1.7 | 8.7 | 0.00 | 0.00 | 0.00 | 67 | 1011.9 |
| 20260504223103 | 69 | 12 | 3.5 | 7.8 | 0.00 | 0.00 | 0.00 | 67 | 1012.0 |
| 20260504222726 | 70 | 205 | 5.2 | 7.8 | 0.00 | 0.00 | 0.00 | 66 | 1012.8 |
| 20260504222536 | 69 | 255 | 5.2 | 9.6 | 0.00 | 0.00 | 0.00 | 68 | 1012.0 |
| 20260504222012 | 69 | 227 | 2.6 | 9.6 | 0.00 | 0.00 | 0.00 | 67 | 1012.1 |
| 20260504221808 | 69 | 218 | 4.3 | 9.6 | 0.00 | 0.00 | 0.00 | 69 | 1012.9 |
| 20260504221507 | 69 | 178 | 3.5 | 7.8 | 0.00 | 0.00 | 0.00 | 67 | 1012.1 |
| 20260504221326 | 69 | 13 | 284.2 | 284.2 | 0.00 | 0.00 | 0.00 | 70 | 1012.1 |
| 20260504221033 | 68 | 181 | 3.5 | 7.0 | 0.00 | 0.00 | 0.00 | 70 | 1012.1 |
| 20260504220713 | 69 | 236 | 2.6 | 7.0 | 0.00 | 0.00 | 0.00 | 70 | 1012.9 |
| 20260504220515 | 68 | 188 | 2.6 | 7.0 | 0.00 | 0.00 | 0.00 | 69 | 1012.1 |
| 20260504220216 | 69 | 177 | 4.3 | 9.6 | 0.00 | 0.00 | 0.00 | 69 | 1013.0 |
| 20260504220058 | 68 | 188 | 3.5 | 9.6 | 0.00 | 0.00 | 0.00 | 69 | 1012.2 |
| 20260504215712 | 69 | 198 | 6.1 | 9.6 | 0.00 | 0.00 | 0.00 | 69 | 1013.1 |
| 20260504215548 | 68 | 11 | 6.1 | 9.6 | 0.00 | 0.00 | 0.00 | 68 | 1012.2 |
| 20260504215239 | 69 | 138 | 3.5 | 0.0 | 0.00 | 0.00 | 0.00 | 71 | 1012.8 |
| 20260504215023 | 68 | 247 | 3.5 | 7.0 | 0.00 | 0.00 | 0.00 | 71 | 1012.3 |
| 20260504214508 | 68 | 201 | 2.6 | 9.6 | 0.00 | 0.00 | 0.00 | 68 | 1012.3 |
| 20260504214218 | 69 | 201 | 4.3 | 9.6 | 0.00 | 0.00 | 0.00 | 71 | 1013.2 |
| 20260504214049 | 68 | 206 | 4.3 | 9.6 | 0.00 | 0.00 | 0.00 | 72 | 1012.5 |
| 20260504213713 | 68 | 117 | 4.3 | 9.6 | 0.00 | 0.00 | 0.00 | 70 | 1013.2 |
| 20260504213521 | 68 | 13 | 2.6 | 7.0 | 0.00 | 0.00 | 0.00 | 73 | 1012.4 |
| 20260504213014 | 67 | 268 | 1.7 | 7.8 | 0.00 | 0.00 | 0.00 | 70 | 1012.5 |
| 20260504212601 | 67 | 157 | 4.3 | 7.8 | 0.00 | 0.00 | 0.00 | 72 | 1012.3 |
| 20260504212214 | 67 | 288 | 2.6 | 8.7 | 0.00 | 0.00 | 0.00 | 71 | 1013.3 |
| 20260504212042 | 67 | 227 | 3.5 | 8.7 | 0.00 | 0.00 | 0.00 | 70 | 1012.5 |
| 20260504211839 | 67 | 254 | 3.5 | 7.8 | 0.00 | 0.00 | 0.00 | 73 | 1013.4 |
| 20260504211506 | 66 | 253 | 1.7 | 7.8 | 0.00 | 0.00 | 0.00 | 70 | 1012.6 |
| 20260504211212 | 67 | 261 | 4.3 | 7.8 | 0.00 | 0.00 | 0.00 | 71 | 1013.6 |
| 20260504211049 | 66 | 227 | 5.2 | 7.8 | 0.00 | 0.00 | 0.00 | 69 | 1012.7 |
| 20260504210755 | 67 | 221 | 5.2 | 7.0 | 0.00 | 0.00 | 0.00 | 73 | 1013.6 |
| 20260504210509 | 66 | 174 | 4.3 | 7.0 | 0.00 | 0.00 | 0.00 | 74 | 1012.8 |
| 20260504210216 | 66 | 227 | 1.7 | 7.8 | 0.00 | 0.00 | 0.00 | 75 | 1013.7 |
| 20260504210050 | 66 | 329 | 1.7 | 7.8 | 0.00 | 0.00 | 0.00 | 72 | 1012.8 |
| 20260504205714 | 66 | 263 | 2.6 | 7.8 | 0.00 | 0.00 | 0.00 | 76 | 1013.8 |
| 20260504205531 | 65 | 257 | 1.7 | 7.8 | 0.00 | 0.00 | 0.00 | 75 | 1013.0 |
| 20260504205240 | 66 | 234 | 5.2 | 8.7 | 0.00 | 0.00 | 0.00 | 73 | 1013.9 |
| 20260504205043 | 65 | 218 | 3.5 | 8.7 | 0.00 | 0.00 | 0.00 | 74 | 1013.0 |
| 20260504204734 | 65 | 237 | 4.3 | 8.7 | 0.00 | 0.00 | 0.00 | 74 | 1013.9 |
| 20260504204525 | 65 | 228 | 4.3 | 9.6 | 0.00 | 0.00 | 0.00 | 75 | 1013.0 |
| 20260504204018 | 65 | 169 | 2.6 | 9.6 | 0.00 | 0.00 | 0.00 | 77 | 1013.1 |
| 20260504203713 | 65 | 252 | 4.3 | 9.6 | 0.00 | 0.00 | 0.00 | 76 | 1014.0 |
| 20260504203508 | 64 | 209 | 5.2 | 9.6 | 0.00 | 0.00 | 0.00 | 74 | 1013.1 |
| 20260504203223 | 65 | 227 | 5.2 | 8.7 | 0.00 | 0.00 | 0.00 | 75 | 1014.0 |
| 20260504203053 | 64 | 217 | 2.6 | 8.7 | 0.00 | 0.00 | 0.00 | 76 | 1013.1 |
| 20260504202722 | 65 | 251 | 3.5 | 8.7 | 0.00 | 0.00 | 0.00 | 75 | 1013.9 |
| 20260504202527 | 64 | 215 | 3.5 | 7.0 | 0.00 | 0.00 | 0.00 | 74 | 1013.1 |
| 20260504202222 | 65 | 229 | 3.5 | 7.8 | 0.00 | 0.00 | 0.00 | 75 | 1014.1 |
| 20260504202001 | 64 | 228 | 4.3 | 7.8 | 0.00 | 0.00 | 0.00 | 78 | 1013.2 |
| 20260504201805 | 64 | 207 | 4.3 | 7.8 | 0.00 | 0.00 | 0.00 | 78 | 1014.3 |
| 20260504201534 | 63 | 213 | 3.5 | 7.0 | 0.00 | 0.00 | 0.00 | 77 | 1013.4 |
| 20260504201011 | 63 | 196 | 5.2 | 7.0 | 0.00 | 0.00 | 0.00 | 76 | 1013.4 |
| 20260504200718 | 64 | 221 | 2.6 | 7.0 | 0.00 | 0.00 | 0.00 | 79 | 1014.3 |
| 20260504200552 | 63 | 251 | 2.6 | 7.0 | 0.00 | 0.00 | 0.00 | 76 | 1013.4 |
| 20260504200220 | 63 | 231 | 4.3 | 7.8 | 0.00 | 0.00 | 0.00 | 77 | 1014.3 |
| 20260504200033 | 63 | 207 | 3.5 | 7.8 | 0.00 | 0.00 | 0.00 | 79 | 1013.5 |
| 20260504195726 | 63 | 223 | 5.2 | 8.7 | 0.00 | 0.00 | 0.00 | 77 | 1014.4 |
| 20260504195509 | 63 | 228 | 4.3 | 8.7 | 0.00 | 0.00 | 0.00 | 80 | 1013.5 |
| 20260504195224 | 63 | 205 | 6.1 | 8.7 | 0.00 | 0.00 | 0.00 | 79 | 1014.5 |
| 20260504195030 | 63 | 215 | 6.1 | 8.7 | 0.00 | 0.00 | 0.00 | 77 | 1013.6 |
| 20260504194725 | 63 | 212 | 4.3 | 8.7 | 0.00 | 0.00 | 0.00 | 78 | 1014.5 |
| 20260504194507 | 63 | 269 | 3.5 | 8.7 | 0.00 | 0.00 | 0.00 | 78 | 1013.5 |
| 20260504194225 | 63 | 221 | 1.7 | 8.7 | 0.00 | 0.00 | 0.00 | 81 | 1014.5 |
| 20260504194053 | 63 | 251 | 2.6 | 8.7 | 0.00 | 0.00 | 0.00 | 81 | 1013.6 |
| 20260504193733 | 63 | 220 | 3.5 | 7.8 | 0.00 | 0.00 | 0.00 | 78 | 1014.5 |
| 20260504193531 | 62 | 285 | 4.3 | 7.8 | 0.00 | 0.00 | 0.00 | 80 | 1013.6 |
| 20260504193235 | 62 | 223 | 4.3 | 9.6 | 0.00 | 0.00 | 0.00 | 80 | 1014.5 |
| 20260504193048 | 62 | 246 | 4.3 | 9.6 | 0.00 | 0.00 | 0.00 | 80 | 1013.5 |
| 20260504192520 | 62 | 229 | 4.3 | 9.6 | 0.00 | 0.00 | 0.00 | 79 | 1013.6 |
| 20260504192229 | 62 | 215 | 7.0 | 9.6 | 0.00 | 0.00 | 0.00 | 79 | 1014.4 |
| 20260504192058 | 62 | 210 | 5.2 | 7.8 | 0.00 | 0.00 | 0.00 | 81 | 1013.5 |
| 20260504191755 | 62 | 239 | 6.1 | 7.8 | 0.00 | 0.00 | 0.00 | 80 | 1014.6 |
| 20260504191602 | 62 | 200 | 5.2 | 8.7 | 0.00 | 0.00 | 0.00 | 80 | 1013.7 |
| 20260504191217 | 62 | 197 | 4.3 | 8.7 | 0.00 | 0.00 | 0.00 | 81 | 1014.5 |
| 20260504191044 | 61 | 228 | 3.5 | 8.7 | 0.00 | 0.00 | 0.00 | 81 | 1013.6 |
| 20260504190719 | 62 | 246 | 6.1 | 9.6 | 0.00 | 0.00 | 0.00 | 79 | 1014.5 |
| 20260504190522 | 61 | 211 | 3.5 | 8.7 | 0.00 | 0.00 | 0.00 | 79 | 1013.6 |
| 20260504190221 | 62 | 164 | 4.3 | 8.7 | 0.00 | 0.00 | 0.00 | 79 | 1014.6 |
| 20260504190057 | 61 | 201 | 4.3 | 8.7 | 0.00 | 0.00 | 0.00 | 79 | 1013.6 |
| 20260504185716 | 61 | 188 | 3.5 | 8.7 | 0.00 | 0.00 | 0.00 | 80 | 1014.6 |
| 20260504185537 | 61 | 223 | 3.5 | 8.7 | 0.00 | 0.00 | 0.00 | 79 | 1013.7 |
| 20260504185228 | 61 | 223 | 284.2 | 284.2 | 0.00 | 0.00 | 0.00 | 80 | 1014.3 |
| 20260504185020 | 60 | 207 | 4.3 | 10.4 | 0.00 | 0.00 | 0.00 | 79 | 1013.7 |
| 20260504184819 | 61 | 232 | 6.1 | 10.4 | 0.00 | 0.00 | 0.00 | 80 | 1014.6 |
| 20260504184519 | 61 | 242 | 4.3 | 8.7 | 0.00 | 0.00 | 0.00 | 81 | 1013.7 |
| 20260504184215 | 61 | 209 | 5.2 | 9.6 | 0.00 | 0.00 | 0.00 | 81 | 1014.7 |
| 20260504184102 | 60 | 167 | 5.2 | 8.7 | 0.00 | 0.00 | 0.00 | 80 | 1013.7 |
| 20260504183540 | 60 | 205 | 3.5 | 8.7 | 0.00 | 0.00 | 0.00 | 81 | 1013.7 |
| 20260504183241 | 60 | 189 | 4.3 | 8.7 | 0.00 | 0.00 | 0.00 | 81 | 1014.6 |
| 20260504183102 | 60 | 235 | 3.5 | 9.6 | 0.00 | 0.00 | 0.00 | 81 | 1013.6 |
| 20260504182722 | 61 | 232 | 6.1 | 9.6 | 0.00 | 0.00 | 0.00 | 81 | 1014.6 |
| 20260504182542 | 60 | 232 | 5.2 | 9.6 | 0.00 | 0.00 | 0.00 | 80 | 1013.7 |
| 20260504182029 | 60 | 223 | 3.5 | 8.7 | 0.00 | 0.00 | 0.00 | 82 | 1013.7 |
| 20260504181735 | 60 | 236 | 5.2 | 0.0 | 0.00 | 0.00 | 0.00 | 81 | 1014.4 |
| 20260504181551 | 60 | 238 | 4.3 | 10.4 | 0.00 | 0.00 | 0.00 | 82 | 1013.7 |
| 20260504181210 | 60 | 171 | 6.1 | 10.4 | 0.00 | 0.00 | 0.00 | 80 | 1014.6 |
| 20260504181033 | 59 | 239 | 6.1 | 10.4 | 0.00 | 0.00 | 0.00 | 81 | 1013.7 |
| 20260504180720 | 60 | 243 | 284.2 | 284.2 | 0.00 | 0.00 | 0.00 | 81 | 1014.4 |
| 20260504180608 | 59 | 243 | 5.2 | 8.7 | 0.00 | 0.00 | 0.00 | 82 | 1013.7 |
| 20260504175758 | 60 | 224 | 5.2 | 0.0 | 0.00 | 0.00 | 0.00 | 81 | 1013.6 |
| 20260504175555 | 59 | 179 | 3.5 | 8.7 | 0.00 | 0.00 | 0.00 | 83 | 1013.7 |
| 20260504175211 | 59 | 225 | 5.2 | 8.7 | 0.00 | 0.00 | 0.00 | 82 | 1014.6 |
| 20260504175042 | 59 | 209 | 4.3 | 8.7 | 0.00 | 0.00 | 0.00 | 80 | 1013.6 |
| 20260504174805 | 59 | 143 | 5.2 | 9.6 | 0.00 | 0.00 | 0.00 | 81 | 1014.6 |
| 20260504174546 | 59 | 204 | 6.1 | 9.6 | 0.00 | 0.00 | 0.00 | 80 | 1013.7 |
| 20260504174218 | 59 | 204 | 6.1 | 8.7 | 0.00 | 0.00 | 0.00 | 83 | 1014.6 |
| 20260504174025 | 59 | 234 | 4.3 | 8.7 | 0.00 | 0.00 | 0.00 | 81 | 1013.6 |
| 20260504173513 | 59 | 227 | 5.2 | 10.4 | 0.00 | 0.00 | 0.00 | 82 | 1013.7 |
| 20260504173220 | 59 | 194 | 5.2 | 10.4 | 0.00 | 0.00 | 0.00 | 81 | 1014.6 |
| 20260504173053 | 59 | 202 | 7.0 | 10.4 | 0.00 | 0.00 | 0.00 | 82 | 1013.6 |
| 20260504172723 | 59 | 202 | 6.1 | 8.7 | 0.00 | 0.00 | 0.00 | 81 | 1014.6 |
| 20260504172533 | 59 | 187 | 4.3 | 8.7 | 0.00 | 0.00 | 0.00 | 83 | 1013.6 |
| 20260504172227 | 59 | 245 | 4.3 | 9.6 | 0.00 | 0.00 | 0.00 | 82 | 1014.6 |
| 20260504172014 | 58 | 234 | 5.2 | 9.6 | 0.00 | 0.00 | 0.00 | 82 | 1013.6 |
| 20260504171724 | 59 | 215 | 5.2 | 9.6 | 0.00 | 0.00 | 0.00 | 82 | 1014.5 |
| 20260504171213 | 59 | 229 | 6.1 | 9.6 | 0.00 | 0.00 | 0.00 | 81 | 1014.5 |
| 20260504171044 | 58 | 221 | 7.0 | 10.4 | 0.00 | 0.00 | 0.00 | 82 | 1013.6 |
| 20260504170714 | 59 | 229 | 7.0 | 10.4 | 0.00 | 0.00 | 0.00 | 81 | 1014.5 |
| 20260504170522 | 59 | 235 | 6.1 | 10.4 | 0.00 | 0.00 | 0.00 | 80 | 1013.5 |
| 20260504160251 | 58 | 192 | 7.0 | 10.4 | 0.00 | 0.00 | 0.00 | 81 | 1014.3 |
| 20260504151044 | 57 | 232 | 4.3 | 7.8 | 0.00 | 0.00 | 0.00 | 83 | 1013.0 |
| 20260504150633 | 56 | 153 | 4.3 | 7.8 | 0.00 | 0.00 | 0.00 | 84 | 1013.0 |
| 20260504150233 | 57 | 181 | 4.3 | 7.8 | 0.00 | 0.00 | 0.00 | 84 | 1013.9 |
| 20260504141216 | 55 | 173 | 2.6 | 7.8 | 0.00 | 0.00 | 0.00 | 85 | 1013.4 |
| 20260504141028 | 55 | 173 | 3.5 | 7.8 | 0.00 | 0.00 | 0.00 | 85 | 1012.4 |
| 20260504140724 | 55 | 183 | 3.5 | 7.8 | 0.00 | 0.00 | 0.00 | 85 | 1013.3 |
| 20260504140505 | 55 | 153 | 4.3 | 7.8 | 0.00 | 0.00 | 0.00 | 85 | 1012.4 |
| 20260504140221 | 55 | 195 | 3.5 | 7.8 | 0.00 | 0.00 | 0.00 | 85 | 1013.3 |
| 20260504130821 | 56 | 182 | 1.7 | 2.6 | 0.00 | 0.00 | 0.00 | 82 | 1012.2 |
| 20260504130511 | 55 | 182 | 0.9 | 2.6 | 0.00 | 0.00 | 0.00 | 82 | 1011.3 |
| 20260504130221 | 56 | 176 | 0.9 | 2.6 | 0.00 | 0.00 | 0.00 | 81 | 1012.1 |